User: anonymous   Login
Location: Unspecified
(0.0000°N, 0.0000°E)
Time: 15:34:14
(UTC+02:00)
Language:

Hubble Space Telescope - Orbit

View from above orbital plane
View from above orbital plane
View from above satellite
View from above satellite

Ground track
Ground track

The orbit data is extracted from the following two-line orbital elements,

1 20580U 90037B   17146.46184240  .00000491  00000-0  19271-4 0  9990
2 20580 028.4687 151.0756 0002501 302.4697 192.1583 15.08768385286912
Epoch (UTC): 26 May 2017 11:05:03
Eccentricity: 0.0002501
inclination: 28.4687°
perigee height: 538 km
apogee height: 541 km
right ascension of ascending node: 151.0756°
argument of perigee: 302.4697°
revolutions per day: 15.08768385
mean anomaly at epoch: 192.1583°
orbit number at epoch: 28691

The dashed part of the orbit path shows where the satellite is in the earth's shadow,  

DLR